Shelton, WA
on Sunday, December 30, 2012

Sunday
Previous Day Next Day
Daily Summary
 ActualAverage (KOLM)Record (KOLM)
Temperature
Mean Temperature °F 38°F  
Max Temperature 39°F 44°F 57°F (1958)
Min Temperature 28°F 33°F 3°F (1978)
Degree Days
Heating Degree Days 32 27  
Month to date heating degree days 799  
Since 1 July heating degree days 2244  
Cooling Degree Days 0 0  
Month to date cooling degree days 0  
Year to date cooling degree days 106  
Moisture
Dew Point 35°F   
Average Humidity 97    
Maximum Humidity 100    
Minimum Humidity 93    
Precipitation
Precipitation 0.00 in 0.22 in 2.50 in (1970)
Month to date precipitation 7.24  
Year to date precipitation 49.78  
Wind
Wind Speed 1 mph   
Max Wind Speed 5 mph   
Max Gust Speed mph   
Visibility 8 miles   
Events     

Key: T is trace of precipitation, MM is missing value
Source: NWS Daily Summary
Time(PST)TemperatureDew PointHumidity Pressure Visibility Wind DirectionWind SpeedGust SpeedPrecipitationEvents Conditions
12:08 AM 39.2°F 37.4°F 93% 30.21 in 10.0 miles Calm Calm - N/A   Overcast
12:26 AM 37.4°F 37.4°F 100% 30.21 in 10.0 miles Calm Calm - N/A   Overcast
12:53 AM 37.9°F 37.9°F 100% 30.23 in 10.0 miles Calm Calm - N/A   Overcast
1:18 AM 37.4°F 37.4°F 100% 30.21 in 10.0 miles NNW 3.5 mph - N/A   Overcast
1:25 AM 37.4°F 37.4°F 100% 30.21 in 10.0 miles Calm Calm - N/A   Overcast
1:40 AM 37.4°F 37.4°F 100% 30.21 in 10.0 miles Calm Calm - N/A   Overcast
1:43 AM 37.4°F 37.4°F 100% 30.21 in 10.0 miles Calm Calm - N/A   Overcast
1:53 AM 37.9°F 37.0°F 97% 30.23 in 10.0 miles Calm Calm - N/A   Overcast
2:21 AM 37.4°F 37.4°F 100% 30.22 in 10.0 miles Calm Calm - N/A   Overcast
2:53 AM 36.0°F 36.0°F 100% 30.25 in 4.0 miles Calm Calm - N/A   Overcast
3:05 AM 35.6°F 35.6°F 100% 30.23 in 10.0 miles NW 3.5 mph - N/A   Overcast
3:46 AM 37.4°F 37.4°F 100% 30.24 in 10.0 miles Calm Calm - N/A   Overcast
3:53 AM 37.4°F 35.6°F 93% 30.24 in 10.0 miles Calm Calm - N/A   Overcast
4:53 AM 37.0°F 36.0°F 96% 30.26 in 10.0 miles Calm Calm - N/A   Overcast
5:53 AM 37.0°F 36.0°F 96% 30.26 in 9.0 miles Calm Calm - N/A   Overcast
6:53 AM 37.0°F 37.0°F 100% 30.27 in 10.0 miles NE 4.6 mph - N/A   Overcast
7:53 AM 37.0°F 36.0°F 96% 30.28 in 10.0 miles Calm Calm - N/A   Overcast
8:34 AM 35.6°F 35.6°F 100% 30.26 in 10.0 miles SSW 3.5 mph - N/A   Overcast
8:53 AM 37.0°F 36.0°F 96% 30.29 in 10.0 miles Calm Calm - N/A   Overcast
9:53 AM 37.9°F 37.0°F 97% 30.31 in 10.0 miles Calm Calm - N/A   Overcast
10:09 AM 39.2°F 37.4°F 93% 30.30 in 10.0 miles Calm Calm - N/A   Overcast
10:43 AM 39.2°F 37.4°F 93% 30.30 in 10.0 miles NNE 3.5 mph - N/A   Overcast
10:53 AM 39.0°F 37.9°F 96% 30.31 in 10.0 miles Calm Calm - N/A   Overcast
11:10 AM 39.2°F 37.4°F 93% 30.29 in 10.0 miles Calm Calm - N/A   Overcast
11:34 AM 39.2°F 37.4°F 93% 30.28 in 10.0 miles Calm Calm - N/A   Overcast
11:53 AM 39.9°F 37.9°F 93% 30.30 in 10.0 miles Calm Calm - N/A   Overcast
12:02 PM 39.2°F 37.4°F 93% 30.28 in 10.0 miles Calm Calm - N/A   Overcast
12:53 PM 39.9°F 37.9°F 93% 30.28 in 10.0 miles Calm Calm - N/A   Overcast
1:53 PM 39.9°F 37.9°F 93% 30.29 in 10.0 miles Calm Calm - N/A   Overcast
2:53 PM 39.9°F 37.9°F 93% 30.29 in 10.0 miles Calm Calm - N/A   Overcast
3:53 PM 39.0°F 37.9°F 96% 30.28 in 10.0 miles NNE 3.5 mph - N/A   Overcast
4:53 PM 39.0°F 37.0°F 93% 30.27 in 10.0 miles NNE 3.5 mph - N/A   Overcast
5:53 PM 37.0°F 36.0°F 96% 30.26 in 10.0 miles NNE 3.5 mph - N/A   Mostly Cloudy
6:46 PM 35.6°F 33.8°F 93% 30.25 in 10.0 miles Calm Calm - N/A   Scattered Clouds
6:53 PM 34.0°F 33.1°F 96% 30.26 in 10.0 miles Calm Calm - N/A   Partly Cloudy
7:18 PM 30.2°F 30.2°F 100% 30.25 in 2.5 miles Calm Calm - N/A   Partly Cloudy
7:30 PM 30.2°F 30.2°F 100% 30.25 in 1.5 miles Calm Calm - N/A   Scattered Clouds
7:45 PM 30.2°F 28.4°F 93% 30.24 in 3.0 miles Calm Calm - N/A   Scattered Clouds
7:53 PM 30.0°F 28.9°F 96% 30.27 in 2.5 miles Calm Calm - N/A   Mostly Cloudy
8:03 PM 28.4°F 28.4°F 100% 30.25 in 1.5 miles Calm Calm - N/A   Mostly Cloudy
8:53 PM 30.0°F 28.9°F 96% 30.27 in 1.8 miles Calm Calm - N/A   Overcast
9:14 PM 28.4°F 28.4°F 100% 30.25 in 3.0 miles Calm Calm - N/A   Overcast
9:23 PM 28.4°F 28.4°F 100% 30.26 in 2.5 miles Calm Calm - N/A   Overcast
9:49 PM 30.2°F 30.2°F 100% 30.26 in 4.0 miles Calm Calm - N/A   Mostly Cloudy
9:53 PM 30.0°F 30.0°F 100% 30.28 in 4.0 miles Calm Calm - N/A   Mostly Cloudy
10:02 PM 28.4°F 28.4°F 100% 30.26 in 7.0 miles Calm Calm - N/A   Scattered Clouds
10:53 PM 30.0°F 30.0°F 100% 30.29 in 10.0 miles Calm Calm - N/A   Clear
11:03 PM 30.2°F 30.2°F 100% 30.27 in 10.0 miles Calm Calm - N/A   Partly Cloudy
11:53 PM 30.9°F 30.9°F 100% 30.28 in 10.0 miles Calm Calm - N/A   Clear
Moon Phase
Dec. 30 Jan. 04 Jan. 11 Jan. 18 Jan. 26
Sunrise:07:59 AM (PST) Moon Rise:07:19 PM (PST)12/30
Sunset:04:31 PM (PST) Moon Set:09:01 AM (PST)12/30

Copyright © 2014 The Weather Underground, Inc.